Find Starlink 31767

NORAD ID: 59605 Int'l Des: 2024-080 Owner: SPXS Country: US Constellation: starlink operational
LEOCIRCULAR

当前视图

正在加载3D地球...

About Starlink 31767

Starlink 31767 (NORAD 59605) is a starlink constellation satellite (v2 mini) launched Apr 28, 2024 by SPXS of US. It operates in LEO, CIRCULAR orbit with a mass of 730.00 kg.

关于 Starlink 31767

正在加载描述...

即将过境

Passes for default location (London). Set your location on the main map for personalized predictions.

高度历史

Loading altitude history...

两行轨道根数

1 59605U 24080E 26171.30133142 .00000123 00000-0 13985-4 0 9999
2 59605 43.0030 178.5974 0001404 273.7422 86.3269 15.27586205120226
Epoch: Jun 20, 2026 • Age: 35 hours

当前状态

高度 484.1 km
速度 7.63 km/s
星下点 27.90°N, 130.72°E
发射日期 Apr 28, 2024
运行时间 2.1 years
类型 internet

技术详情

分类 Payload
质量 730.00 kg
干质量 700.00 kg
总质量 730.00 kg
长度 0.30 m
直径 4.10 m
跨度 29.00 m
形状 Box + pan
制造商 SPXS
平台类型 Starlink V2M
阶段状态 In Orbit
所有者/国家 SPXS/US

Most Searched